Location: Newark
(55.7108°N, 37.6306°E)
Time: 10:45:33
(UTC+00:00)

OTV 5 (USA 277) - Visible Passes

Search period start: 18 October 2019 00:00
Search period end: 28 October 2019 00:00
Orbit: 310 x 324 km, 54.5° (Epoch: 08 October)

Date Brightness Start Highest point End Pass type
(mag) Time Alt. Az. Time Alt. Az. Time Alt. Az.
18 Oct ? 01:34:13 14° SE 01:34:13 14° SE 01:34:43 10° SE visible
18 Oct ? 03:05:28 10° SW 03:05:51 10° SW 03:06:15 10° SSW visible
19 Oct ? 01:48:42 11° SSE 01:48:42 11° SSE 01:48:49 10° SSE visible
